Home > Weather > Lillestrøm > Past weeks

Flag for Norway Past Weather in Lillestrøm, Norway — Yesterday and Last 2 Weeks

Now
58 °F

Refreshingly cool.


Feels Like: 57 °F
Forecast: 47 / 67 °F
Wind: 6 mph from Northeast

Location: Oslo-Blindern

Current Time: May 26, 2016 at 10:32:14 PM

Latest Report: May 26, 2016 at 9:00 PM


Visibility: N/A

Pressure: 30.10 "Hg

Humidity: 54%

Dew Point: 41 °F

Location of LillestrømLocation

Past Weather in Lillestrøm — Graph

°F

Lillestrøm Temperature Yesterday

Maximum temperature yesterday: 64 °F (at 7:00 PM)
Minimum temperature yesterday: 47 °F (at 6:00 AM)
Average temperature yesterday: 56 °F

High & Low Weather Summary for the Past Weeks

 TemperatureHumidityPressure
High65 °F (May 26, 3:00 PM)98% (May 22, 4:00 AM)30.19 "Hg (May 22, 4:00 AM)
Low38 °F (May 17, 5:00 AM)24% (May 16, 5:00 PM)29.62 "Hg (May 17, 7:00 PM)
Average53 °F66%29.83 "Hg
* Reported May 11 9:00 PM — May 26 9:00 PM, Lillestrøm, Weather by CustomWeather, © 2016

Note: Actual official high and low records may vary slightly from our data, if they occured in-between our weather recording intervals... More about our weather records

Advertising

Lillestrøm Weather History for the Previous 24 Hours

Scroll right to see more
 ConditionsComfort  
Time TempWeatherWind HumidityBarometerVisibility
9:00 PM
Thu, May 26
58 °FRefreshingly cool.6 mph54%30.10 "HgN/A
8:00 PM60 °FScattered clouds.7 mph49%30.08 "Hg47 mi
7:00 PM61 °FRefreshingly cool.6 mph47%30.06 "Hg22 mi
6:00 PM65 °FMild.5 mph37%30.04 "Hg25 mi
5:00 PM65 °FScattered clouds.5 mph35%30.04 "Hg47 mi
4:00 PM64 °FMild.6 mph33%30.04 "Hg22 mi
3:00 PM65 °FMild.5 mph32%30.05 "Hg19 mi
2:00 PM65 °FPassing clouds.1 mph31%30.06 "Hg47 mi
1:00 PM62 °FRefreshingly cool.5 mph36%30.07 "Hg12 mi
12:00 PM61 °FRefreshingly cool.3 mph42%30.08 "Hg18 mi
11:00 AM60 °FRefreshingly cool.2 mph41%30.09 "Hg18 mi
10:00 AM58 °FRefreshingly cool.3 mph46%30.11 "Hg19 mi
9:00 AM54 °FCool.5 mph46%30.12 "Hg19 mi
8:00 AM53 °FCool.3 mph50%30.13 "Hg18 mi
7:00 AM51 °FCool.3 mph54%30.14 "Hg19 mi
6:00 AM48 °FCool.7 mph59%30.14 "Hg25 mi
5:00 AM47 °FCool.7 mph62%30.15 "Hg22 mi
4:00 AM47 °FCool.7 mph60%30.14 "Hg31 mi
3:00 AM48 °FCool.8 mph58%30.15 "Hg28 mi
2:00 AM50 °FCool.6 mph54%30.15 "Hg28 mi
1:00 AM50 °FCool.1 mph53%30.16 "HgN/A
12:00 AM52 °FCool.7 mph50%30.14 "Hg28 mi
11:00 PM
Wed, May 25
54 °FCool.7 mph46%30.13 "Hg25 mi
10:00 PM57 °FRefreshingly cool.6 mph42%30.11 "HgN/A
Weather by CustomWeather, © 2016

See weather overviewHow to use our weather pages